Showing default

CHINASAT 1E, 53813

Orbit data source: Space-Track

CHINASAT 1E, 53813 is a payload satellite owned by PLA SSF (CN) in GEO that was launched on Tue, 13 Sep 2022 UTC via a CHANG ZHENG 7A launch vehicle from the Wenchang Satellite Launch Center (WSC). Payload-class satellites include a variety of spacecraft equipped with specific instruments for various scientific and technological missions. These include communications satellites like Starlink; space stations such as the ISS; scientific satellites like the Hubble; Earth observation satellites from companies like Planet Labs, Umbra, and HawkEye 360; GPS; miniature CubeSats for education and research; and military/defense satellites.

Not visible in the next 10 days
Identifier
53813, 2022-112A
Orbit
GEO
Country
Flag of CNCN / PRC
Related business
Manufacturer
CAST?
Mission
Operational Defense Communications
Bus & Motor
DFH-4?, DFH-4 LAE
Mass
~5,000 kg wet, ~2,500 kg dry
Launch date (UTC)
2022-09-13 (4 years ago)
Launch vehicle
CHANG ZHENG 7A
Launch site
Wenchang Satellite Launch Center (WSC)
Object type
Payload
Rocket body
Debris
Shape & HBR
Box + 2 Pan, 15.0 m
Radar Cross Section
34.063 m², Large (>1 m²)

Expand to show TLE details & history
Last TLE update: 1 day ago

TLE from 1 day ago
0 CHINASAT 1E
1 53813U 22112A   26172.54876942 -.00000151  00000-0  00000+0 0  9998
2 53813   0.0421 183.4778 0000561 137.9279 227.3046  1.00272232 13891
Epoch: 2026-06-21T13:10Z
TLE epoch observation values (Epoch: 2026-06-21T13:10:13.677Z)
Latitude
-0.00794°
Longitude
81.41184°
Altitude
35,787.556 km
Speed
3.075 km/s
True Right ascension
12h 34m 51s
True Declination
0° 00' 29"
Sunlit
Object was in daylight at epoch
Visualization orbit readout
Latitude
Unknown
Longitude
Unknown
Altitude
Unknown
Speed
Unknown
Apparent Right ascension
Unknown
Apparent Declination
Unknown
Sunlit
N/A
Visualization observer readout
Local Sidereal Time
00:27:42
Azimuth
Unknown
Elevation
Unknown
Doppler factor
Unknown
Orbital elements
Apogee altitude
35,789.906 km
Perigee altitude
35,785.175 km
Semi-major axis
42,165.677 km
Eccentricity
0.00006
Inclination
0.0421°
RAAN
183.4778°
Arg. of periapsis
137.9279°
True anomaly
227.29988°
Mean anomaly
227.3046°
Eccentric anomaly
227.30224°
Mean motion
0.25067 °/min
Orbital period
1,436.14 mins
BSTAR
0
Loading maneuver chart data...
Computing Atmospheric mass density...
Loading historical data...
Loading historical data...
Loading historical data...
Loading historical data...
Loading historical data...
Loading historical data...
Loading historical data...
Other satellites on launch #112 in the year 2022 (2022-09-13 UTC)

Documentation

Showing up to 5 results
|